Погода в Вате

Россия / Ханты-Мансийский автономный округ - Югра     61°05′20″N   75°49′03″E
темп.,
°C
ветер,
м/с
пор.,
м/с
влажн.,
%
обл.,
%
осадки,
мм/ч
давл.,
гПа
погр.,
м
9 августа, вт
вт923:00+18зсз468628 0.7 101769
02:00+17сз45890 0.5 101672
05:00+17зюз338645 0.6 101634
08:00+22ссз236926 0.8 1016260
11:00+26сз23520 0.8 1016552
14:00+29сз34390 0.0 10151925
17:00+29сз564537 0.0 1013733
20:00+19ююз458513 0.2 101557
10 августа, ср
ср1023:00+18зсз128512 0.7 101511
02:00+17ссз47925 1.5 1015122
05:00+16с48945 2.4 1015236
08:00+19ссв69725 0.0 1017573
11:00+22ссв77475 0.0 10171107
14:00+23ссв774310 0.0 10181480
17:00+23ссв66435 0.0 10181874
20:00+17с44575 0.0 101833
11 августа, чт
чт1123:00+14ссв59668 0.0 1019138
02:00+13св46695 0.0 102081
05:00+12ссв35705 0.0 102171
08:00+17св46515 0.0 1021493
11:00+20ссв45405 0.0 10211734
14:00+21св33365 0.0 10201862
17:00+21всв22375 0.0 10191707
20:00+15всв335395 0.0 101911
12 августа, пт
пт1223:00+13юв456525 0.0 101854
02:00+11юв487279 0.0 1017104
05:00+10юв4872100 0.0 1016140
08:00+17ююв57565 0.0 1014422
11:00+22ю68435 0.0 10121272
14:00+24ю89365 0.0 10091859
17:00+24ю6104688 0.0 10061766
20:00+16юв2298100 6.7 100493
13 августа, сб
сб1323:00+16ююз599675 21.4 1004345
02:00+14юз5997100 0.1 1003256
05:00+13юз499738 0.1 1002238
08:00+15юз5685100 0.0 1001446
11:00+13юз4797100 4.0 1000451
14:00+14юз3493100 1.9 999366
17:00+15з2486100 2.2 999524
20:00+14зсз4693100 2.3 999121